Time,TemperatureF,DewpointF,PressureIn,WindDirection,WindDirectionDegrees,WindSpeedMPH,WindSpeedGustMPH,Humidity,HourlyPrecipIn,Conditions,Clouds,dailyrainin,SolarRadiationWatts/m^2,SoftwareType,DateUTC
2013-04-08 00:23:00,31.0,29.0,-100.00,ESE,122,4.0,8.0,94,0.00,,,0.00,1.000000,,2013-04-08 04:23:00,
2013-04-08 00:33:00,31.0,29.0,-100.00,ESE,122,4.0,8.0,94,0.00,,,0.00,1.000000,,2013-04-08 04:33:00,
2013-04-08 00:44:00,31.0,29.0,-100.00,ESE,122,4.0,8.0,94,0.00,,,0.00,1.000000,,2013-04-08 04:44:00,
2013-04-08 00:52:00,31.0,29.0,-100.00,ESE,122,4.0,8.0,94,0.00,,,0.00,1.000000,,2013-04-08 04:52:00,
2013-04-08 01:32:00,31.0,28.0,-100.00,SE,141,4.0,11.0,89,0.00,,,0.00,1.000000,,2013-04-08 05:32:00,
2013-04-08 01:42:00,31.0,28.0,-100.00,SE,141,4.0,11.0,89,0.00,,,0.00,1.000000,,2013-04-08 05:42:00,
2013-04-08 01:52:00,31.0,28.0,-100.00,SE,141,4.0,11.0,89,0.00,,,0.00,1.000000,,2013-04-08 05:52:00,
2013-04-08 02:22:00,31.0,28.0,-100.00,SE,135,4.0,11.0,87,0.00,,,0.00,1.000000,,2013-04-08 06:22:00,
2013-04-08 02:32:00,31.0,28.0,-100.00,SE,135,4.0,11.0,87,0.00,,,0.00,1.000000,,2013-04-08 06:32:00,
2013-04-08 02:42:00,31.0,28.0,-100.00,SE,135,4.0,11.0,87,0.00,,,0.00,1.000000,,2013-04-08 06:42:00,
2013-04-08 02:52:00,31.0,28.0,-100.00,SE,135,4.0,11.0,87,0.00,,,0.00,1.000000,,2013-04-08 06:52:00,
2013-04-08 03:22:00,31.0,28.0,-100.00,SE,139,3.0,9.0,88,0.00,,,0.00,1.000000,,2013-04-08 07:22:00,
2013-04-08 03:33:00,31.0,28.0,-100.00,SE,139,3.0,9.0,88,0.00,,,0.00,1.000000,,2013-04-08 07:33:00,
2013-04-08 03:42:00,31.0,28.0,-100.00,SE,139,3.0,9.0,88,0.00,,,0.00,1.000000,,2013-04-08 07:42:00,
2013-04-08 03:52:00,31.0,28.0,-100.00,SE,139,3.0,9.0,88,0.00,,,0.00,1.000000,,2013-04-08 07:52:00,
2013-04-08 04:33:00,32.0,29.0,-100.00,SSE,147,4.0,9.0,88,0.00,,,0.00,1.000000,,2013-04-08 08:33:00,
2013-04-08 04:42:00,32.0,29.0,-100.00,SSE,147,4.0,9.0,88,0.00,,,0.00,1.000000,,2013-04-08 08:42:00,
2013-04-08 04:52:00,32.0,29.0,-100.00,SSE,147,4.0,9.0,88,0.00,,,0.00,1.000000,,2013-04-08 08:52:00,
2013-04-08 05:23:00,32.0,29.0,-100.00,SSE,147,4.0,7.0,89,0.00,,,0.00,1.000000,,2013-04-08 09:23:00,
2013-04-08 05:33:00,32.0,29.0,-100.00,SSE,147,4.0,7.0,89,0.00,,,0.00,1.000000,,2013-04-08 09:33:00,
2013-04-08 05:43:00,32.0,29.0,-100.00,SSE,147,4.0,7.0,89,0.00,,,0.00,1.000000,,2013-04-08 09:43:00,
2013-04-08 05:53:00,32.0,29.0,-100.00,SSE,147,4.0,7.0,89,0.00,,,0.00,1.000000,,2013-04-08 09:53:00,
2013-04-08 06:23:00,32.0,30.0,-100.00,South,188,4.0,8.0,94,0.00,,,0.00,1.000000,,2013-04-08 10:23:00,
2013-04-08 06:33:00,32.0,30.0,-100.00,South,188,4.0,8.0,94,0.00,,,0.00,1.000000,,2013-04-08 10:33:00,
2013-04-08 06:42:00,32.0,30.0,-100.00,South,188,4.0,8.0,94,0.00,,,0.00,1.000000,,2013-04-08 10:42:00,
2013-04-08 06:52:00,32.0,30.0,-100.00,South,188,4.0,8.0,94,0.00,,,0.00,1.000000,,2013-04-08 10:52:00,
2013-04-08 07:22:00,32.0,31.0,-100.00,SE,127,4.0,8.0,96,0.00,,,0.00,1.000000,,2013-04-08 11:22:00,
2013-04-08 07:32:00,32.0,31.0,-100.00,SE,127,4.0,8.0,96,0.00,,,0.00,1.000000,,2013-04-08 11:32:00,
2013-04-08 07:42:00,32.0,31.0,-100.00,SE,127,4.0,8.0,96,0.00,,,0.00,1.000000,,2013-04-08 11:42:00,
2013-04-08 07:52:00,32.0,31.0,-100.00,SE,127,4.0,8.0,96,0.00,,,0.00,1.000000,,2013-04-08 11:52:00,
2013-04-08 08:23:00,32.0,31.0,-100.00,SSE,162,2.0,7.0,95,0.00,,,0.00,1.000000,,2013-04-08 12:23:00,
2013-04-08 08:33:00,32.0,31.0,-100.00,SSE,162,2.0,7.0,95,0.00,,,0.00,1.000000,,2013-04-08 12:33:00,
2013-04-08 08:42:00,32.0,31.0,-100.00,SSE,162,2.0,7.0,95,0.00,,,0.00,1.000000,,2013-04-08 12:42:00,
2013-04-08 08:52:00,32.0,31.0,-100.00,SSE,162,2.0,7.0,95,0.00,,,0.00,1.000000,,2013-04-08 12:52:00,
2013-04-08 09:22:00,32.0,31.0,-100.00,SSE,157,4.0,7.0,96,0.00,,,0.00,3.000000,,2013-04-08 13:22:00,
2013-04-08 09:32:00,32.0,31.0,-100.00,SSE,157,4.0,7.0,96,0.00,,,0.00,3.000000,,2013-04-08 13:32:00,
2013-04-08 09:42:00,32.0,31.0,-100.00,SSE,157,4.0,7.0,96,0.00,,,0.00,3.000000,,2013-04-08 13:42:00,
2013-04-08 09:52:00,32.0,31.0,-100.00,SSE,157,4.0,7.0,96,0.00,,,0.00,3.000000,,2013-04-08 13:52:00,
2013-04-08 10:22:00,33.0,32.0,-100.00,SE,133,2.0,6.0,96,0.00,,,0.00,7.000000,,2013-04-08 14:22:00,
2013-04-08 10:32:00,33.0,32.0,-100.00,SE,133,2.0,6.0,96,0.00,,,0.00,7.000000,,2013-04-08 14:32:00,
2013-04-08 10:42:00,33.0,32.0,-100.00,SE,133,2.0,6.0,96,0.00,,,0.00,7.000000,,2013-04-08 14:42:00,
2013-04-08 10:52:00,33.0,32.0,-100.00,SE,133,2.0,6.0,96,0.00,,,0.00,7.000000,,2013-04-08 14:52:00,
2013-04-08 11:22:00,33.0,32.0,-100.00,ESE,113,3.0,7.0,95,0.00,,,0.00,17.000000,,2013-04-08 15:22:00,
2013-04-08 11:33:00,33.0,32.0,-100.00,ESE,113,3.0,7.0,95,0.00,,,0.00,17.000000,,2013-04-08 15:33:00,
2013-04-08 11:43:00,33.0,32.0,-100.00,ESE,113,3.0,7.0,95,0.00,,,0.00,17.000000,,2013-04-08 15:43:00,
2013-04-08 11:53:00,33.0,32.0,-100.00,ESE,113,3.0,7.0,95,0.00,,,0.00,17.000000,,2013-04-08 15:53:00,
2013-04-08 12:23:00,34.0,32.0,-100.00,SE,124,4.0,7.0,93,0.00,,,0.00,37.000000,,2013-04-08 16:23:00,
2013-04-08 12:32:00,34.0,32.0,-100.00,SE,124,4.0,7.0,93,0.00,,,0.00,37.000000,,2013-04-08 16:32:00,
2013-04-08 12:42:00,34.0,32.0,-100.00,SE,124,4.0,7.0,93,0.00,,,0.00,37.000000,,2013-04-08 16:42:00,
2013-04-08 12:53:00,34.0,32.0,-100.00,SE,124,4.0,7.0,93,0.00,,,0.00,37.000000,,2013-04-08 16:53:00,
2013-04-08 13:22:00,34.0,32.0,-100.00,SE,129,3.0,9.0,92,0.00,,,0.00,50.000000,,2013-04-08 17:22:00,
2013-04-08 13:32:00,34.0,32.0,-100.00,SE,129,3.0,9.0,92,0.00,,,0.00,50.000000,,2013-04-08 17:32:00,
2013-04-08 13:43:00,34.0,32.0,-100.00,SE,129,3.0,9.0,92,0.00,,,0.00,50.000000,,2013-04-08 17:43:00,
2013-04-08 13:52:00,34.0,32.0,-100.00,SE,129,3.0,9.0,92,0.00,,,0.00,50.000000,,2013-04-08 17:52:00,
2013-04-08 14:12:00,36.0,34.0,-100.00,ESE,120,4.0,6.0,91,0.00,,,0.00,97.000000,,2013-04-08 18:12:00,
2013-04-08 14:23:00,36.0,34.0,-100.00,ESE,120,4.0,6.0,91,0.00,,,0.00,97.000000,,2013-04-08 18:23:00,
2013-04-08 14:32:00,36.0,34.0,-100.00,ESE,120,4.0,6.0,91,0.00,,,0.00,97.000000,,2013-04-08 18:32:00,
2013-04-08 14:42:00,36.0,34.0,-100.00,ESE,120,4.0,6.0,91,0.00,,,0.00,97.000000,,2013-04-08 18:42:00,
2013-04-08 14:52:00,36.0,34.0,-100.00,ESE,120,4.0,6.0,91,0.00,,,0.00,97.000000,,2013-04-08 18:52:00,
2013-04-08 15:12:00,38.0,35.0,-100.00,ENE,73,2.0,7.0,90,0.00,,,0.00,163.000000,,2013-04-08 19:12:00,
2013-04-08 15:23:00,38.0,35.0,-100.00,ENE,73,2.0,7.0,90,0.00,,,0.00,163.000000,,2013-04-08 19:23:00,
2013-04-08 15:33:00,38.0,35.0,-100.00,ENE,73,2.0,7.0,90,0.00,,,0.00,163.000000,,2013-04-08 19:33:00,
2013-04-08 15:42:00,38.0,35.0,-100.00,ENE,73,2.0,7.0,90,0.00,,,0.00,163.000000,,2013-04-08 19:42:00,
2013-04-08 15:52:00,38.0,35.0,-100.00,ENE,73,2.0,7.0,90,0.00,,,0.00,163.000000,,2013-04-08 19:52:00,
2013-04-08 16:23:00,38.0,35.0,-100.00,East,101,2.0,5.0,90,0.00,,,0.00,146.000000,,2013-04-08 20:23:00,
2013-04-08 16:33:00,38.0,35.0,-100.00,East,101,2.0,5.0,90,0.00,,,0.00,146.000000,,2013-04-08 20:33:00,
2013-04-08 16:43:00,38.0,35.0,-100.00,East,101,2.0,5.0,90,0.00,,,0.00,146.000000,,2013-04-08 20:43:00,
2013-04-08 16:52:00,38.0,35.0,-100.00,East,101,2.0,5.0,90,0.00,,,0.00,146.000000,,2013-04-08 20:52:00,
2013-04-08 17:22:00,36.0,34.0,-100.00,NE,38,2.0,4.0,91,0.00,,,0.00,85.000000,,2013-04-08 21:22:00,
2013-04-08 17:32:00,36.0,34.0,-100.00,NE,38,2.0,4.0,91,0.00,,,0.00,85.000000,,2013-04-08 21:32:00,
2013-04-08 17:43:00,36.0,34.0,-100.00,NE,38,2.0,4.0,91,0.00,,,0.00,85.000000,,2013-04-08 21:43:00,
2013-04-08 17:52:00,36.0,34.0,-100.00,NE,38,2.0,4.0,91,0.00,,,0.00,85.000000,,2013-04-08 21:52:00,
2013-04-08 18:23:00,36.0,34.0,-100.00,ENE,69,2.0,5.0,94,0.00,,,-99.99,68.000000,,2013-04-08 22:23:00,
2013-04-08 18:32:00,36.0,34.0,-100.00,ENE,69,2.0,5.0,94,0.00,,,-99.99,68.000000,,2013-04-08 22:32:00,
2013-04-08 18:43:00,36.0,34.0,-100.00,ENE,69,2.0,5.0,94,0.00,,,-99.99,68.000000,,2013-04-08 22:43:00,
2013-04-08 18:52:00,36.0,34.0,-100.00,ENE,69,2.0,5.0,94,0.00,,,-99.99,68.000000,,2013-04-08 22:52:00,
2013-04-08 19:32:00,35.0,34.0,-100.00,NNE,32,1.0,5.0,95,0.00,,,0.00,52.000000,,2013-04-08 23:32:00,
2013-04-08 19:42:00,35.0,34.0,-100.00,NNE,32,1.0,5.0,95,0.00,,,0.00,52.000000,,2013-04-08 23:42:00,
2013-04-08 19:52:00,35.0,34.0,-100.00,NNE,32,1.0,5.0,95,0.00,,,0.00,52.000000,,2013-04-08 23:52:00,
2013-04-08 20:22:00,35.0,34.0,-100.00,NE,43,1.0,3.0,96,0.00,,,0.00,22.000000,,2013-04-09 00:22:00,
2013-04-08 20:32:00,35.0,34.0,-100.00,NE,43,1.0,3.0,96,0.00,,,0.00,22.000000,,2013-04-09 00:32:00,
2013-04-08 20:42:00,35.0,34.0,-100.00,NE,43,1.0,3.0,96,0.00,,,0.00,22.000000,,2013-04-09 00:42:00,
2013-04-08 20:52:00,35.0,34.0,-100.00,NE,43,1.0,3.0,96,0.00,,,0.00,22.000000,,2013-04-09 00:52:00,
2013-04-08 21:22:00,34.0,33.0,-100.00,NE,47,2.0,4.0,97,0.00,,,0.00,4.000000,,2013-04-09 01:22:00,
2013-04-08 21:33:00,34.0,33.0,-100.00,NE,47,2.0,4.0,97,0.00,,,0.00,4.000000,,2013-04-09 01:33:00,
2013-04-08 21:42:00,34.0,33.0,-100.00,NE,47,2.0,4.0,97,0.00,,,0.00,4.000000,,2013-04-09 01:42:00,
2013-04-08 21:52:00,34.0,33.0,-100.00,NE,47,2.0,4.0,97,0.00,,,0.00,4.000000,,2013-04-09 01:52:00,
2013-04-08 22:22:00,33.0,32.0,-100.00,ENE,63,0.0,1.0,97,0.00,,,0.00,1.000000,,2013-04-09 02:22:00,
2013-04-08 22:33:00,33.0,32.0,-100.00,ENE,63,0.0,1.0,97,0.00,,,0.00,1.000000,,2013-04-09 02:33:00,
2013-04-08 22:43:00,33.0,32.0,-100.00,ENE,63,0.0,1.0,97,0.00,,,0.00,1.000000,,2013-04-09 02:43:00,
2013-04-08 22:52:00,33.0,32.0,-100.00,ENE,63,0.0,1.0,97,0.00,,,0.00,1.000000,,2013-04-09 02:52:00,
2013-04-08 23:22:00,33.0,32.0,-100.00,NNE,22,0.0,0.0,97,0.00,,,0.00,1.000000,,2013-04-09 03:22:00,
2013-04-08 23:33:00,33.0,32.0,-100.00,NNE,22,0.0,0.0,97,0.00,,,0.00,1.000000,,2013-04-09 03:33:00,
2013-04-08 23:43:00,33.0,32.0,-100.00,NNE,22,0.0,0.0,97,0.00,,,0.00,1.000000,,2013-04-09 03:43:00,
2013-04-08 23:52:00,33.0,32.0,-100.00,NNE,22,0.0,0.0,97,0.00,,,0.00,1.000000,,2013-04-09 03:52:00,